K6OUA-11 Weather Reports


time (UTC)temp
F
wind
direction
speed
knots
gust
knots
rain 1hr
in
rain 24hr
in
rain mn
in
humidity
%
barometer
mb
20170329205209 89 247 5.2 6.1 0.00 0.00 0.00 25 1010.7
20170329204907 89 235 3.5 5.2 0.00 0.00 0.00 24 1010.8
20170329204606 89 247 4.3 7.8 0.00 0.00 0.00 24 1010.7
20170329204305 89 217 3.5 11.3 0.00 0.00 0.00 23 1010.8
20170329203703 89 270 4.3 7.8 0.00 0.00 0.00 19 1010.9
20170329203401 89 237 2.6 7.8 0.00 0.00 0.00 19 1010.8
20170329203100 89 306 2.6 5.2 0.00 0.00 0.00 20 1010.9
20170329202759 88 0 5.2 5.2 0.00 0.00 0.00 18 1011.0
20170329202458 88 315 3.5 5.2 0.00 0.00 0.00 18 1011.0
20170329202157 88 351 4.3 6.1 0.00 0.00 0.00 20 1011.0
20170329201856 88 328 6.1 6.1 0.00 0.00 0.00 19 1011.0
20170329201555 88 323 2.6 7.8 0.00 0.00 0.00 20 1011.1
20170329201254 88 305 2.6 7.0 0.00 0.00 0.00 20 1011.1
20170329200953 88 303 0.9 4.3 0.00 0.00 0.00 21 1011.1
20170329200652 87 13 2.6 8.7 0.00 0.00 0.00 18 1011.1
20170329200351 87 157 0.9 5.2 0.00 0.00 0.00 21 1011.0
20170329200050 86 4 5.2 5.2 0.00 0.00 0.00 20 1011.2
20170329195749 86 33 6.1 6.1 0.00 0.00 0.00 20 1011.1
20170329195448 86 7 6.1 10.4 0.00 0.00 0.00 18 1011.1
20170329195146 86 0 6.1 8.7 0.00 0.00 0.00 18 1011.0
20170329194847 86 324 4.3 9.6 0.00 0.00 0.00 19 1011.2
20170329194546 86 351 7.8 13.0 0.00 0.00 0.00 18 1011.2
20170329194243 86 45 4.3 13.0 0.00 0.00 0.00 19 1011.3
20170329193944 86 54 7.0 11.3 0.00 0.00 0.00 19 1011.2
20170329193339 86 357 3.5 7.0 0.00 0.00 0.00 22 1011.3
20170329193038 85 105 5.2 7.8 0.00 0.00 0.00 21 1011.3
20170329192737 85 92 5.2 12.2 0.00 0.00 0.00 20 1011.3
20170329192437 85 90 6.1 12.2 0.00 0.00 0.00 19 1011.3
20170329192137 85 103 4.3 11.3 0.00 0.00 0.00 20 1011.2
20170329191834 85 60 7.0 7.8 0.00 0.00 0.00 20 1011.3
20170329191536 85 83 7.0 7.8 0.00 0.00 0.00 22 1011.4
20170329191232 85 27 5.2 7.8 0.00 0.00 0.00 20 1011.4
20170329190931 85 355 6.1 6.1 0.00 0.00 0.00 21 1011.5
20170329190630 85 38 3.5 9.6 0.00 0.00 0.00 21 1011.4
20170329190328 84 87 7.8 10.4 0.00 0.00 0.00 20 1011.3
20170329190030 84 67 6.1 9.6 0.00 0.00 0.00 21 1011.4
20170329185728 84 357 4.3 9.6 0.00 0.00 0.00 20 1011.6
20170329185426 84 65 3.5 7.0 0.00 0.00 0.00 22 1011.7
20170329185127 83 96 3.5 10.4 0.00 0.00 0.00 22 1011.7
20170329184823 83 85 6.1 11.3 0.00 0.00 0.00 21 1011.7
20170329184522 83 78 9.6 11.3 0.00 0.00 0.00 21 1011.6
20170329184222 83 54 7.0 9.6 0.00 0.00 0.00 21 1011.7
20170329183922 83 83 7.0 9.6 0.00 0.00 0.00 22 1011.8
20170329183619 83 47 4.3 7.8 0.00 0.00 0.00 22 1011.9
20170329183317 82 92 5.2 8.7 0.00 0.00 0.00 22 1011.8
20170329182716 82 78 13.0 13.0 0.00 0.00 0.00 21 1011.7
20170329182113 82 78 6.1 12.2 0.00 0.00 0.00 22 1011.9
20170329181812 82 96 3.5 7.0 0.00 0.00 0.00 22 1011.9
20170329181514 82 96 1.7 12.2 0.00 0.00 0.00 22 1011.9
20170329180909 82 65 5.2 10.4 0.00 0.00 0.00 22 1012.0
20170329180608 82 85 7.8 12.2 0.00 0.00 0.00 21 1011.7
20170329180307 82 58 7.0 9.6 0.00 0.00 0.00 22 1011.9
20170329180006 82 77 3.5 12.2 0.00 0.00 0.00 22 1011.8
20170329175704 82 72 12.2 12.2 0.00 0.00 0.00 22 1011.9
20170329175403 82 19 5.2 7.8 0.00 0.00 0.00 23 1011.9
20170329175102 82 83 7.8 7.8 0.00 0.00 0.00 22 1011.9
20170329174801 82 90 4.3 5.2 0.00 0.00 0.00 23 1011.8
20170329174500 81 94 1.7 7.0 0.00 0.00 0.00 24 1011.7
20170329174159 81 119 1.7 8.7 0.00 0.00 0.00 23 1011.8
20170329173557 81 85 2.6 7.8 0.00 0.00 0.00 22 1011.9
20170329173256 81 72 6.1 9.6 0.00 0.00 0.00 23 1011.7
20170329172955 81 83 7.8 7.8 0.00 0.00 0.00 23 1011.6
20170329172653 81 67 2.6 7.8 0.00 0.00 0.00 22 1011.9
20170329172352 80 92 3.5 9.6 0.00 0.00 0.00 23 1011.9
20170329172051 80 110 4.3 9.6 0.00 0.00 0.00 23 1011.9
20170329171750 80 142 0.9 5.2 0.00 0.00 0.00 24 1012.0
20170329171450 80 67 1.7 9.6 0.00 0.00 0.00 23 1012.0
20170329171148 80 40 6.1 6.1 0.00 0.00 0.00 23 1011.9
20170329170847 80 38 2.6 7.0 0.00 0.00 0.00 24 1012.1
20170329170546 80 67 3.5 8.7 0.00 0.00 0.00 24 1012.0
20170329170245 80 72 3.5 8.7 0.00 0.00 0.00 23 1012.0
20170329165946 80 87 7.8 8.7 0.00 0.00 0.00 22 1012.0
20170329165645 80 74 8.7 8.7 0.00 0.00 0.00 23 1012.0
20170329165042 80 60 4.3 7.0 0.00 0.00 0.00 24 1012.0
20170329164741 80 94 4.3 7.0 0.00 0.00 0.00 24 1011.8
20170329164438 80 54 4.3 7.8 0.00 0.00 0.00 24 1012.1
20170329164141 80 78 7.0 7.8 0.00 0.00 0.00 24 1011.9
20170329163835 80 20 2.6 6.1 0.00 0.00 0.00 25 1012.0
20170329163534 80 50 5.2 6.1 0.00 0.00 0.00 25 1011.9
20170329162934 80 76 3.5 4.3 0.00 0.00 0.00 27 1012.0
20170329162632 80 105 1.7 6.1 0.00 0.00 0.00 28 1012.0
20170329162031 80 60 4.3 5.2 0.00 0.00 0.00 28 1011.8
20170329161730 80 261 0.0 3.5 0.00 0.00 0.00 30 1012.0
20170329161125 79 270 2.6 2.6 0.00 0.00 0.00 32 1011.9
20170329160522 78 270 0.0 0.0 0.00 0.00 0.00 31 1012.1
20170329160223 78 252 0.9 2.6 0.00 0.00 0.00 32 1011.9
20170329155923 77 189 2.6 3.5 0.00 0.00 0.00 31 1012.1
20170329155626 77 193 2.6 3.5 0.00 0.00 0.00 32 1011.9
20170329155319 76 173 0.9 2.6 0.00 0.00 0.00 33 1011.9
20170329155028 75 225 0.0 0.0 0.00 0.00 0.00 34 1012.0
20170329154720 75 227 0.0 2.6 0.00 0.00 0.00 34 1012.0
20170329154415 74 189 1.7 3.5 0.00 0.00 0.00 34 1011.9
20170329154116 73 177 2.6 3.5 0.00 0.00 0.00 34 1011.8
20170329153814 73 153 0.9 3.5 0.00 0.00 0.00 35 1011.9
20170329153512 72 114 1.7 3.5 0.00 0.00 0.00 35 1011.9
20170329153211 72 132 2.6 3.5 0.00 0.00 0.00 35 1011.9
20170329152609 71 126 2.6 2.6 0.00 0.00 0.00 35 1011.7
20170329152308 71 94 2.6 2.6 0.00 0.00 0.00 36 1011.8
20170329152007 70 225 0.0 2.6 0.00 0.00 0.00 37 1011.7
20170329151706 69 121 1.7 1.7 0.00 0.00 0.00 38 1011.9
20170329151405 69 180 0.0 1.7 0.00 0.00 0.00 38 1011.8
20170329151104 68 202 0.0 1.7 0.00 0.00 0.00 38 1011.7
20170329150803 67 270 1.7 1.7 0.00 0.00 0.00 38 1011.8
20170329150502 67 270 0.0 1.7 0.00 0.00 0.00 37 1011.7
20170329150200 66 315 0.9 1.7 0.00 0.00 0.00 38 1011.6
20170329145858 65 126 0.9 1.7 0.00 0.00 0.00 39 1011.6
20170329144655 64 272 1.7 3.5 0.00 0.00 0.00 37 1011.5
20170329144355 63 265 1.7 3.5 0.00 0.00 0.00 37 1011.6
20170329144052 63 270 3.5 4.3 0.00 0.00 0.00 38 1011.5
20170329143750 63 270 4.3 4.3 0.00 0.00 0.00 38 1011.5
20170329143450 63 272 2.6 3.5 0.00 0.00 0.00 38 1011.4
20170329142847 62 45 0.0 0.9 0.00 0.00 0.00 38 1011.3
20170329142547 62 83 0.0 4.3 0.00 0.00 0.00 37 1011.2
20170329142246 61 128 3.5 6.1 0.00 0.00 0.00 37 1010.9
20170329141945 61 121 3.5 6.1 0.00 0.00 0.00 37 1011.1
20170329141645 60 90 5.2 5.2 0.00 0.00 0.00 37 1011.0
20170329141343 59 110 0.9 2.6 0.00 0.00 0.00 38 1011.0
20170329141041 59 164 0.9 2.6 0.00 0.00 0.00 38 1011.0
20170329140740 58 126 1.7 3.5 0.00 0.00 0.00 38 1011.1
20170329140137 57 105 4.3 4.3 0.00 0.00 0.00 40 1010.9
20170329135836 57 110 2.6 4.3 0.00 0.00 0.00 40 1010.8
20170329135229 57 105 1.7 1.7 0.00 0.00 0.00 39 1010.8
20170329134928 57 202 0.0 0.0 0.00 0.00 0.00 40 1010.9
20170329134627 57 270 0.0 1.7 0.00 0.00 0.00 39 1010.9
20170329134326 57 33 1.7 3.5 0.00 0.00 0.00 39 1010.9
20170329134024 58 42 2.6 3.5 0.00 0.00 0.00 39 1010.8
20170329133723 58 40 2.6 3.5 0.00 0.00 0.00 39 1010.7
20170329133424 58 321 1.7 4.3 0.00 0.00 0.00 38 1010.7
20170329133121 58 37 2.6 4.3 0.00 0.00 0.00 39 1010.7
20170329132822 58 18 1.7 4.3 0.00 0.00 0.00 39 1010.8
20170329132519 58 33 2.6 5.2 0.00 0.00 0.00 38 1010.7
20170329132218 58 20 4.3 5.2 0.00 0.00 0.00 39 1010.8
20170329131917 59 37 1.7 3.5 0.00 0.00 0.00 39 1010.6
20170329131617 59 0 2.6 3.5 0.00 0.00 0.00 38 1010.5
20170329131316 60 173 0.9 2.6 0.00 0.00 0.00 37 1010.7
20170329131015 60 6 1.7 2.6 0.00 0.00 0.00 37 1010.7
20170329130713 60 270 0.0 1.7 0.00 0.00 0.00 36 1010.8
20170329130411 60 315 0.9 3.5 0.00 0.00 0.00 36 1010.7
20170329130110 60 301 2.6 4.3 0.00 0.00 0.00 36 1010.8
20170329125809 60 315 3.5 4.3 0.00 0.00 0.00 36 1010.7
20170329125509 60 270 0.9 3.5 0.00 0.00 0.00 35 1010.6
20170329125207 61 315 2.6 2.6 0.00 0.00 0.00 36 1010.6
20170329124907 61 270 1.7 1.7 0.00 0.00 0.00 35 1010.5
20170329124606 61 270 0.9 0.9 0.00 0.00 0.00 35 1010.4
20170329124303 62 225 0.9 1.7 0.00 0.00 0.00 35 1010.4
20170329124037 62 225 0.0 1.7 0.00 0.00 0.00 34 1010.4
20170329124002 62 225 0.0 1.7 0.00 0.00 0.00 34 1010.4
20170329123736 62 225 0.0 2.6 0.00 0.00 0.00 34 1010.3
20170329123702 62 225 0.0 2.6 0.00 0.00 0.00 34 1010.3
20170329123457 63 225 0.0 2.6 0.00 0.00 0.00 35 1010.4
20170329123400 63 225 0.0 2.6 0.00 0.00 0.00 35 1010.4
20170329122846 62 90 2.6 6.1 0.00 0.00 0.00 34 1010.3
20170329122758 62 90 2.6 6.1 0.00 0.00 0.00 34 1010.3
20170329122533 62 92 5.2 7.8 0.00 0.00 0.00 33 1010.2
20170329122458 62 92 5.2 7.8 0.00 0.00 0.00 33 1010.2
20170329122246 62 83 5.2 11.3 0.00 0.00 0.00 34 1010.3
20170329122156 62 83 5.2 11.3 0.00 0.00 0.00 34 1010.3
20170329121932 61 94 7.0 10.4 0.00 0.00 0.00 34 1010.1
20170329121855 61 94 7.0 10.4 0.00 0.00 0.00 34 1010.1
20170329121631 61 87 8.7 8.7 0.00 0.00 0.00 34 1010.0
20170329121554 61 87 8.7 8.7 0.00 0.00 0.00 34 1010.0
20170329121340 61 90 3.5 6.1 0.00 0.00 0.00 35 1010.2
20170329121253 61 90 3.5 6.1 0.00 0.00 0.00 35 1010.2
20170329121030 61 117 0.9 2.6 0.00 0.00 0.00 35 1010.2
20170329120952 61 117 0.9 2.6 0.00 0.00 0.00 35 1010.2
20170329120422 62 357 0.9 1.7 0.00 0.00 0.00 35 1010.2
20170329120350 62 357 0.9 1.7 0.00 0.00 0.00 35 1010.2
20170329120144 62 184 1.7 1.7 0.00 0.00 0.00 34 1010.5
20170329120048 62 184 1.7 1.7 0.00 0.00 0.00 34 1010.5
20170329115827 62 164 0.0 1.7 0.00 0.00 0.00 34 1010.2
20170329115748 62 164 0.0 1.7 0.00 0.00 0.00 34 1010.2
20170329115446 62 45 1.7 4.3 0.00 0.00 0.00 34 1010.2
20170329115232 62 90 3.5 4.3 0.00 0.00 0.00 34 1010.5
20170329115145 62 90 3.5 4.3 0.00 0.00 0.00 34 1010.5
20170329114950 62 70 3.5 3.5 0.00 0.00 0.00 34 1010.7
20170329114844 62 70 3.5 3.5 0.00 0.00 0.00 34 1010.7
20170329114629 62 69 2.6 5.2 0.00 0.00 0.00 34 1010.3
20170329114542 62 69 2.6 5.2 0.00 0.00 0.00 34 1010.3
20170329113712 63 49 2.6 5.2 0.00 0.00 0.00 34 1010.6
20170329113639 63 49 2.6 5.2 0.00 0.00 0.00 34 1010.6
20170329113339 63 92 2.6 7.0 0.00 0.00 0.00 33 1010.5
20170329112812 62 58 5.2 7.0 0.00 0.00 0.00 34 1010.5
20170329112740 62 58 5.2 7.0 0.00 0.00 0.00 34 1010.5
20170329112435 62 42 5.2 7.0 0.00 0.00 0.00 34 1010.4
20170329112221 62 40 5.2 7.8 0.00 0.00 0.00 34 1010.4
20170329112134 62 40 5.2 7.8 0.00 0.00 0.00 34 1010.4
20170329111604 62 36 6.1 8.7 0.00 0.00 0.00 35 1010.6
20170329111533 62 36 6.1 8.7 0.00 0.00 0.00 35 1010.6
20170329111328 62 45 5.2 8.7 0.00 0.00 0.00 34 1010.5
20170329111230 62 45 5.2 8.7 0.00 0.00 0.00 34 1010.5
20170329111008 62 51 4.3 8.7 0.00 0.00 0.00 34 1010.5
20170329110929 62 51 4.3 8.7 0.00 0.00 0.00 34 1010.5
20170329110716 62 51 6.1 7.8 0.00 0.00 0.00 34 1010.5
20170329110628 62 51 6.1 7.8 0.00 0.00 0.00 34 1010.5
20170329110107 62 45 6.1 10.4 0.00 0.00 0.00 34 1010.4
20170329110026 62 45 6.1 10.4 0.00 0.00 0.00 34 1010.4
20170329105507 63 78 6.1 8.7 0.00 0.00 0.00 34 1010.5
20170329105428 63 78 6.1 8.7 0.00 0.00 0.00 34 1010.5
20170329105215 62 76 7.8 8.7 0.00 0.00 0.00 34 1010.4
20170329105122 62 76 7.8 8.7 0.00 0.00 0.00 34 1010.4
20170329104823 62 81 6.1 7.8 0.00 0.00 0.00 34 1010.6
20170329104012 62 85 6.1 7.8 0.00 0.00 0.00 34 1010.5
20170329103919 62 85 6.1 7.8 0.00 0.00 0.00 34 1010.5
20170329103618 62 72 4.3 7.8 0.00 0.00 0.00 35 1010.5
20170329102804 62 42 4.3 6.1 0.00 0.00 0.00 35 1010.6
20170329102714 62 42 4.3 6.1 0.00 0.00 0.00 35 1010.6
20170329102447 62 69 5.2 6.1 0.00 0.00 0.00 35 1010.7
20170329102413 62 69 5.2 6.1 0.00 0.00 0.00 35 1010.7
20170329102159 62 58 5.2 7.8 0.00 0.00 0.00 34 1010.6
20170329102113 62 58 5.2 7.8 0.00 0.00 0.00 34 1010.6
20170329101858 62 85 7.0 8.7 0.00 0.00 0.00 34 1010.8
20170329101509 63 74 4.3 8.7 0.00 0.00 0.00 35 1010.7
20170329101009 62 76 6.1 7.0 0.00 0.00 0.00 34 1010.8
20170329100907 62 76 6.1 7.0 0.00 0.00 0.00 34 1010.8
20170329100704 62 83 5.2 9.6 0.00 0.00 0.00 34 1010.8
20170329100607 62 83 5.2 9.6 0.00 0.00 0.00 34 1010.8
20170329100337 62 81 6.1 7.0 0.00 0.00 0.00 35 1010.9
20170329100305 62 81 6.1 7.0 0.00 0.00 0.00 35 1010.9
20170329095826 62 63 6.1 8.7 0.00 0.00 0.00 35 1011.0
20170329095703 62 63 6.1 8.7 0.00 0.00 0.00 35 1011.0
20170329095148 62 31 5.2 7.8 0.00 0.00 0.00 36 1011.0
20170329095100 62 31 5.2 7.8 0.00 0.00 0.00 36 1011.0
20170329094902 62 40 5.2 6.1 0.00 0.00 0.00 36 1010.9
20170329094801 62 40 5.2 6.1 0.00 0.00 0.00 36 1010.9
20170329093959 62 45 6.1 7.8 0.00 0.00 0.00 36 1010.7
20170329093857 62 45 6.1 7.8 0.00 0.00 0.00 36 1010.7
20170329093658 62 49 4.3 7.8 0.00 0.00 0.00 37 1010.7
20170329093555 62 49 4.3 7.8 0.00 0.00 0.00 37 1010.7
20170329093355 62 45 7.8 7.8 0.00 0.00 0.00 36 1011.0
20170329093254 62 45 7.8 7.8 0.00 0.00 0.00 36 1011.0
20170329093032 62 47 5.2 8.7 0.00 0.00 0.00 37 1011.2
20170329092953 62 47 5.2 8.7 0.00 0.00 0.00 37 1011.2
20170329092754 62 65 4.3 8.7 0.00 0.00 0.00 36 1011.0
20170329092652 62 65 4.3 8.7 0.00 0.00 0.00 36 1011.0
20170329092429 62 56 7.8 8.7 0.00 0.00 0.00 37 1010.8
20170329092350 62 56 7.8 8.7 0.00 0.00 0.00 37 1010.8
20170329092152 62 56 5.2 8.7 0.00 0.00 0.00 37 1010.8
20170329092049 62 56 5.2 8.7 0.00 0.00 0.00 37 1010.8
20170329091528 62 27 7.8 8.7 0.00 0.00 0.00 36 1010.9
20170329091442 62 27 7.8 8.7 0.00 0.00 0.00 36 1010.9
20170329091224 61 49 4.3 8.7 0.00 0.00 0.00 37 1010.7
20170329091141 61 49 4.3 8.7 0.00 0.00 0.00 37 1010.7
20170329090940 61 33 7.0 7.0 0.00 0.00 0.00 37 1010.8
20170329090840 61 33 7.0 7.0 0.00 0.00 0.00 37 1010.8
20170329090406 61 49 8.7 8.7 0.00 0.00 0.00 38 1010.9
20170329090312 61 49 8.7 8.7 0.00 0.00 0.00 38 1010.9
20170329090238 61 49 8.7 8.7 0.00 0.00 0.00 38 1010.9
20170329090034 61 45 6.1 7.8 0.00 0.00 0.00 38 1010.9
20170329085937 61 45 6.1 7.8 0.00 0.00 0.00 38 1010.9
20170329085725 61 45 7.8 7.8 0.00 0.00 0.00 38 1010.9
20170329085635 61 45 7.8 7.8 0.00 0.00 0.00 38 1010.9
20170329085442 61 20 4.3 6.1 0.00 0.00 0.00 39 1010.8
20170329085107 61 51 4.3 7.0 0.00 0.00 0.00 38 1011.2
20170329085033 61 51 4.3 7.0 0.00 0.00 0.00 38 1011.2
20170329084835 61 45 5.2 6.1 0.00 0.00 0.00 39 1010.8
20170329084732 61 45 5.2 6.1 0.00 0.00 0.00 39 1010.8
20170329084529 61 42 4.3 6.1 0.00 0.00 0.00 38 1010.9
20170329084431 61 42 4.3 6.1 0.00 0.00 0.00 38 1010.9
20170329084225 61 38 6.1 7.8 0.00 0.00 0.00 39 1011.1
20170329084130 61 38 6.1 7.8 0.00 0.00 0.00 39 1011.1
20170329083626 61 40 6.1 7.0 0.00 0.00 0.00 39 1010.9
20170329083528 61 40 6.1 7.0 0.00 0.00 0.00 39 1010.9
20170329083303 61 45 6.1 7.8 0.00 0.00 0.00 39 1011.1
20170329083229 61 45 6.1 7.8 0.00 0.00 0.00 39 1011.1
20170329083008 61 38 7.0 7.8 0.00 0.00 0.00 39 1011.1
20170329082926 61 38 7.0 7.8 0.00 0.00 0.00 39 1011.1
20170329082721 61 42 5.2 10.4 0.00 0.00 0.00 39 1011.1
20170329082626 61 42 5.2 10.4 0.00 0.00 0.00 39 1011.1
20170329082426 61 40 5.2 10.4 0.00 0.00 0.00 39 1010.9
20170329082323 61 40 5.2 10.4 0.00 0.00 0.00 39 1010.9
20170329082110 61 47 5.2 8.7 0.00 0.00 0.00 39 1011.1
20170329082022 61 47 5.2 8.7 0.00 0.00 0.00 39 1011.1
20170329081800 61 45 7.0 8.7 0.00 0.00 0.00 39 1011.2
20170329081722 61 45 7.0 8.7 0.00 0.00 0.00 39 1011.2
20170329081458 61 38 7.0 9.6 0.00 0.00 0.00 39 1011.2
20170329081420 61 38 7.0 9.6 0.00 0.00 0.00 39 1011.2
20170329081219 61 40 7.8 8.7 0.00 0.00 0.00 39 1011.1
20170329081119 61 40 7.8 8.7 0.00 0.00 0.00 39 1011.1
20170329080927 61 58 3.5 6.1 0.00 0.00 0.00 38 1011.1
20170329080818 61 58 3.5 6.1 0.00 0.00 0.00 38 1011.1
20170329080550 61 58 5.2 7.0 0.00 0.00 0.00 39 1010.9
20170329080517 61 58 5.2 7.0 0.00 0.00 0.00 39 1010.9
20170329080258 62 65 7.0 7.0 0.00 0.00 0.00 38 1011.0
20170329080216 62 65 7.0 7.0 0.00 0.00 0.00 38 1011.0
20170329075955 62 49 4.3 7.8 0.00 0.00 0.00 38 1010.9
20170329075915 62 49 4.3 7.8 0.00 0.00 0.00 38 1010.9
20170329075649 62 51 6.1 7.8 0.00 0.00 0.00 38 1011.4
20170329075614 62 51 6.1 7.8 0.00 0.00 0.00 38 1011.4
20170329075426 62 45 7.0 8.7 0.00 0.00 0.00 37 1011.1
20170329075312 62 45 7.0 8.7 0.00 0.00 0.00 37 1011.1
20170329075012 62 85 6.1 8.7 0.00 0.00 0.00 37 1011.1
20170329074744 62 81 6.1 10.4 0.00 0.00 0.00 37 1011.0
20170329074711 62 81 6.1 10.4 0.00 0.00 0.00 37 1011.0
20170329074506 62 92 6.1 10.4 0.00 0.00 0.00 36 1010.9
20170329074409 62 92 6.1 10.4 0.00 0.00 0.00 36 1010.9
20170329074144 62 117 3.5 8.7 0.00 0.00 0.00 38 1011.2
20170329074108 62 117 3.5 8.7 0.00 0.00 0.00 38 1011.2
20170329073928 62 114 6.1 8.7 0.00 0.00 0.00 38 1011.0
20170329073808 62 114 6.1 8.7 0.00 0.00 0.00 38 1011.0
20170329073559 62 94 6.1 8.7 0.00 0.00 0.00 38 1011.1
20170329073506 62 94 6.1 8.7 0.00 0.00 0.00 38 1011.1
20170329073246 62 99 6.1 7.8 0.00 0.00 0.00 39 1011.2
20170329073206 62 99 6.1 7.8 0.00 0.00 0.00 39 1011.2
20170329073001 62 112 5.2 7.8 0.00 0.00 0.00 38 1011.2
20170329072905 62 112 5.2 7.8 0.00 0.00 0.00 38 1011.2
20170329072343 62 119 2.6 5.2 0.00 0.00 0.00 38 1011.1
20170329072305 62 119 2.6 5.2 0.00 0.00 0.00 38 1011.1
20170329071740 62 92 5.2 6.1 0.00 0.00 0.00 37 1011.2
20170329071659 62 92 5.2 6.1 0.00 0.00 0.00 37 1011.2
20170329071452 62 90 6.1 7.0 0.00 0.00 0.00 37 1010.9
20170329071358 62 90 6.1 7.0 0.00 0.00 0.00 37 1010.9
20170329071237 62 90 5.2 7.8 0.00 0.00 0.00 37 1010.9
20170329071159 62 90 5.2 7.8 0.00 0.00 0.00 37 1010.9
20170329071057 62 90 5.2 7.8 0.00 0.00 0.00 37 1010.9
20170329070456 62 90 7.0 8.7 0.00 0.00 0.00 38 1010.6
20170329070256 61 87 8.7 8.7 0.00 0.00 0.00 39 1010.7
20170329070154 61 87 8.7 8.7 0.00 0.00 0.00 39 1010.7
20170329065932 61 85 3.5 7.0 0.00 0.00 0.00 40 1010.7
20170329065852 61 85 3.5 7.0 0.00 0.00 0.00 40 1010.7
20170329065641 61 69 2.6 7.0 0.00 0.00 0.00 40 1010.7
20170329065552 61 69 2.6 7.0 0.00 0.00 0.00 40 1010.7
20170329065339 61 90 6.1 10.4 0.00 0.00 0.00 40 1010.8
20170329065250 61 90 6.1 10.4 0.00 0.00 0.00 40 1010.8
20170329065044 60 87 7.8 8.7 0.00 0.00 0.00 40 1010.8
20170329064949 60 87 7.8 8.7 0.00 0.00 0.00 40 1010.8
20170329064743 60 90 3.5 6.1 0.00 0.00 0.00 42 1010.9
20170329064648 60 90 3.5 6.1 0.00 0.00 0.00 42 1010.9
20170329064437 59 78 6.1 7.8 0.00 0.00 0.00 42 1011.0
20170329064348 59 78 6.1 7.8 0.00 0.00 0.00 42 1011.0
20170329064237 59 90 4.3 7.0 0.00 0.00 0.00 43 1011.0
20170329064149 59 90 4.3 7.0 0.00 0.00 0.00 43 1011.0
20170329064046 59 90 4.3 7.0 0.00 0.00 0.00 43 1011.0
20170329063745 59 87 1.7 4.3 0.00 0.00 0.00 43 1011.1
20170329063523 59 40 3.5 3.5 0.00 0.00 0.00 45 1011.1
20170329063445 59 40 3.5 3.5 0.00 0.00 0.00 45 1011.1
20170329063244 59 50 0.0 2.6 0.00 0.00 0.00 45 1011.0
20170329063143 59 50 0.0 2.6 0.00 0.00 0.00 45 1011.0
20170329062929 59 202 0.0 2.6 0.00 0.00 0.00 46 1011.2
20170329062841 59 202 0.0 2.6 0.00 0.00 0.00 46 1011.2
20170329062640 59 135 1.7 3.5 0.00 0.00 0.00 45 1011.1
20170329062540 59 135 1.7 3.5 0.00 0.00 0.00 45 1011.1
20170329062342 59 164 2.6 2.6 0.00 0.00 0.00 45 1011.1
20170329062240 59 164 2.6 2.6 0.00 0.00 0.00 45 1011.1
20170329062025 59 175 0.9 2.6 0.00 0.00 0.00 45 1011.1
20170329061938 59 175 0.9 2.6 0.00 0.00 0.00 45 1011.1
20170329061710 59 171 1.7 2.6 0.00 0.00 0.00 45 1011.1
20170329061637 59 171 1.7 2.6 0.00 0.00 0.00 45 1011.1
20170329061440 59 137 0.9 2.6 0.00 0.00 0.00 45 1011.3
20170329061336 59 137 0.9 2.6 0.00 0.00 0.00 45 1011.3
20170329061125 59 225 0.0 3.5 0.00 0.00 0.00 44 1011.2
20170329061036 59 225 0.0 3.5 0.00 0.00 0.00 44 1011.2
20170329060812 60 270 1.7 3.5 0.00 0.00 0.00 45 1011.0
20170329060734 60 270 1.7 3.5 0.00 0.00 0.00 45 1011.0
20170329060434 60 0 1.7 2.6 0.00 0.00 0.00 45 1011.1
20170329060248 60 81 2.6 4.3 0.00 0.00 0.00 45 1011.2
20170329060132 60 81 2.6 4.3 0.00 0.00 0.00 45 1011.2
20170329055921 60 112 1.7 4.3 0.00 0.00 0.00 44 1010.9
20170329055830 60 112 1.7 4.3 0.00 0.00 0.00 44 1010.9
20170329055615 60 119 2.6 4.3 0.00 0.00 0.00 45 1011.0
20170329055529 60 119 2.6 4.3 0.00 0.00 0.00 45 1011.0
20170329055330 60 54 3.5 4.3 0.00 0.00 0.00 44 1011.1
20170329055229 60 54 3.5 4.3 0.00 0.00 0.00 44 1011.1
20170329055026 60 85 3.5 6.1 0.00 0.00 0.00 45 1010.9
20170329054927 60 85 3.5 6.1 0.00 0.00 0.00 45 1010.9
20170329054702 60 85 0.9 3.5 0.00 0.00 0.00 45 1011.0
20170329054626 60 85 0.9 3.5 0.00 0.00 0.00 45 1011.0
20170329054438 60 19 1.7 4.3 0.00 0.00 0.00 45 1011.2
20170329054325 60 19 1.7 4.3 0.00 0.00 0.00 45 1011.2
20170329054125 60 65 1.7 4.3 0.00 0.00 0.00 45 1011.0
20170329054025 60 65 1.7 4.3 0.00 0.00 0.00 45 1011.0
20170329053758 60 45 2.6 3.5 0.00 0.00 0.00 45 1011.0
20170329053724 60 45 2.6 3.5 0.00 0.00 0.00 45 1011.0
20170329053503 60 49 1.7 2.6 0.00 0.00 0.00 45 1011.0
20170329053422 60 49 1.7 2.6 0.00 0.00 0.00 45 1011.0
20170329053121 60 90 2.6 4.3 0.00 0.00 0.00 45 1011.1
20170329052912 60 182 0.0 4.3 0.00 0.00 0.00 44 1011.0
20170329052819 60 182 0.0 4.3 0.00 0.00 0.00 44 1011.0
20170329052617 60 65 2.6 5.2 0.00 0.00 0.00 45 1011.0
20170329052518 60 65 2.6 5.2 0.00 0.00 0.00 45 1011.0
20170329052252 61 87 3.5 5.2 0.00 0.00 0.00 44 1011.0
20170329052217 61 87 3.5 5.2 0.00 0.00 0.00 44 1011.0
20170329051957 61 31 1.7 5.2 0.00 0.00 0.00 44 1011.1
20170329051916 61 31 1.7 5.2 0.00 0.00 0.00 44 1011.1
20170329051706 61 56 5.2 5.2 0.00 0.00 0.00 44 1010.9
20170329051616 61 56 5.2 5.2 0.00 0.00 0.00 44 1010.9
20170329051418 61 42 3.5 5.2 0.00 0.00 0.00 44 1011.1
20170329051317 61 42 3.5 5.2 0.00 0.00 0.00 44 1011.1
20170329050752 61 76 4.3 5.2 0.00 0.00 0.00 45 1010.8
20170329050712 61 76 4.3 5.2 0.00 0.00 0.00 45 1010.8
20170329050156 61 87 2.6 4.3 0.00 0.00 0.00 44 1010.9
20170329050110 61 87 2.6 4.3 0.00 0.00 0.00 44 1010.9
20170329045907 61 87 1.7 6.1 0.00 0.00 0.00 45 1011.0
20170329045808 61 87 1.7 6.1 0.00 0.00 0.00 45 1011.0
20170329045512 61 78 3.5 6.1 0.00 0.00 0.00 44 1010.9
20170329045246 61 78 4.3 7.8 0.00 0.00 0.00 44 1011.0
20170329045207 61 78 4.3 7.8 0.00 0.00 0.00 44 1011.0
20170329044945 61 67 3.5 6.1 0.00 0.00 0.00 45 1010.8
20170329044905 61 67 3.5 6.1 0.00 0.00 0.00 45 1010.8
20170329044640 61 54 3.5 6.1 0.00 0.00 0.00 45 1010.7
20170329044605 61 54 3.5 6.1 0.00 0.00 0.00 45 1010.7
20170329044354 61 49 6.1 7.8 0.00 0.00 0.00 45 1010.6
20170329044303 61 49 6.1 7.8 0.00 0.00 0.00 45 1010.6
20170329044115 61 63 3.5 7.0 0.00 0.00 0.00 45 1010.7
20170329044036 61 63 3.5 7.0 0.00 0.00 0.00 45 1010.7
20170329044002 61 63 3.5 7.0 0.00 0.00 0.00 45 1010.7
20170329043757 61 92 4.3 5.2 0.00 0.00 0.00 45 1010.6
20170329043703 61 92 4.3 5.2 0.00 0.00 0.00 45 1010.6
20170329043459 62 49 5.2 5.2 0.00 0.00 0.00 45 1010.6
20170329043401 62 49 5.2 5.2 0.00 0.00 0.00 45 1010.6
20170329043216 62 60 2.6 7.0 0.00 0.00 0.00 46 1010.9
20170329043059 62 60 2.6 7.0 0.00 0.00 0.00 46 1010.9
20170329042251 62 47 2.6 7.8 0.00 0.00 0.00 46 1010.9
20170329042155 62 47 2.6 7.8 0.00 0.00 0.00 46 1010.9
20170329041936 62 65 3.5 7.8 0.00 0.00 0.00 45 1011.0
20170329041854 62 65 3.5 7.8 0.00 0.00 0.00 45 1011.0
20170329041629 62 56 4.3 10.4 0.00 0.00 0.00 46 1011.0
20170329041553 62 56 4.3 10.4 0.00 0.00 0.00 46 1011.0
20170329041423 62 49 6.1 10.4 0.00 0.00 0.00 45 1010.7
20170329041252 62 49 6.1 10.4 0.00 0.00 0.00 45 1010.7
20170329041023 62 42 7.8 11.3 0.00 0.00 0.00 46 1010.7
20170329040952 62 42 7.8 11.3 0.00 0.00 0.00 46 1010.7
20170329040735 61 20 8.7 10.4 0.00 0.00 0.00 46 1010.5
20170329040651 61 20 8.7 10.4 0.00 0.00 0.00 46 1010.5
20170329040133 61 40 4.3 10.4 0.00 0.00 0.00 46 1010.5
20170329040047 61 40 4.3 10.4 0.00 0.00 0.00 46 1010.5
20170329035834 61 45 6.1 7.8 0.00 0.00 0.00 46 1010.5
20170329035746 61 45 6.1 7.8 0.00 0.00 0.00 46 1010.5
20170329035533 61 51 3.5 7.0 0.00 0.00 0.00 46 1010.7
20170329035448 61 51 3.5 7.0 0.00 0.00 0.00 46 1010.7
20170329035228 60 22 6.1 7.0 0.00 0.00 0.00 47 1010.4
20170329035144 60 22 6.1 7.0 0.00 0.00 0.00 47 1010.4
20170329034936 60 11 2.6 5.2 0.00 0.00 0.00 47 1010.3
20170329034843 60 11 2.6 5.2 0.00 0.00 0.00 47 1010.3
20170329034632 60 326 2.6 5.2 0.00 0.00 0.00 47 1010.4
20170329034542 60 326 2.6 5.2 0.00 0.00 0.00 47 1010.4
20170329034335 60 324 0.9 5.2 0.00 0.00 0.00 48 1010.3
20170329034242 60 324 0.9 5.2 0.00 0.00 0.00 48 1010.3
20170329034015 60 290 4.3 5.2 0.00 0.00 0.00 49 1010.3
20170329033940 60 290 4.3 5.2 0.00 0.00 0.00 49 1010.3
20170329033640 60 312 3.5 5.2 0.00 0.00 0.00 49 1010.2
20170329033425 59 318 1.7 5.2 0.00 0.00 0.00 49 1010.2
20170329033337 59 318 1.7 5.2 0.00 0.00 0.00 49 1010.2
20170329033119 59 312 2.6 3.5 0.00 0.00 0.00 49 1010.1
20170329033036 59 312 2.6 3.5 0.00 0.00 0.00 49 1010.1
20170329032737 59 355 0.9 1.7 0.00 0.00 0.00 49 1010.1
20170329032521 60 2 0.9 1.7 0.00 0.00 0.00 50 1010.0
20170329032434 60 2 0.9 1.7 0.00 0.00 0.00 50 1010.0
20170329032231 60 252 0.0 0.0 0.00 0.00 0.00 49 1009.9
20170329032133 60 252 0.0 0.0 0.00 0.00 0.00 49 1009.9
20170329031912 60 180 0.0 1.7 0.00 0.00 0.00 49 1010.0
20170329031832 60 180 0.0 1.7 0.00 0.00 0.00 49 1010.0
20170329031612 60 27 1.7 3.5 0.00 0.00 0.00 49 1010.0
20170329031531 60 27 1.7 3.5 0.00 0.00 0.00 49 1010.0
20170329031347 60 270 0.0 4.3 0.00 0.00 0.00 50 1009.8
20170329031231 60 270 0.0 4.3 0.00 0.00 0.00 50 1009.8
20170329030407 60 270 0.9 3.5 0.00 0.00 0.00 48 1009.8
20170329030326 60 270 0.9 3.5 0.00 0.00 0.00 48 1009.8
20170329030109 60 0 2.6 2.6 0.00 0.00 0.00 49 1009.7
20170329030025 60 0 2.6 2.6 0.00 0.00 0.00 49 1009.7
20170329025821 60 270 0.0 1.7 0.00 0.00 0.00 47 1009.8
20170329025724 60 270 0.0 1.7 0.00 0.00 0.00 47 1009.8
20170329025423 61 324 1.7 1.7 0.00 0.00 0.00 47 1009.7
20170329025122 61 303 0.0 1.7 0.00 0.00 0.00 47 1009.5
20170329024822 61 357 0.9 0.9 0.00 0.00 0.00 46 1009.6
20170329024257 62 265 0.0 0.0 0.00 0.00 0.00 45 1009.5
20170329024219 62 265 0.0 0.0 0.00 0.00 0.00 45 1009.5
20170329023919 62 274 0.0 1.7 0.00 0.00 0.00 45 1009.5
20170329023706 62 135 0.0 0.0 0.00 0.00 0.00 45 1009.3
20170329023617 62 135 0.0 0.0 0.00 0.00 0.00 45 1009.3
20170329023057 63 225 0.0 0.0 0.00 0.00 0.00 44 1009.4
20170329023014 63 225 0.0 0.0 0.00 0.00 0.00 44 1009.4
20170329022852 63 130 0.0 0.0 0.00 0.00 0.00 44 1009.5
20170329022713 63 130 0.0 0.0 0.00 0.00 0.00 44 1009.5
20170329022520 64 270 0.0 3.5 0.00 0.00 0.00 43 1009.5
20170329022412 64 270 0.0 3.5 0.00 0.00 0.00 43 1009.5
20170329022226 64 222 0.0 3.5 0.00 0.00 0.00 42 1009.5
20170329022111 64 222 0.0 3.5 0.00 0.00 0.00 42 1009.5
20170329021945 64 193 0.9 5.2 0.00 0.00 0.00 42 1009.2
20170329021810 64 193 0.9 5.2 0.00 0.00 0.00 42 1009.2
20170329021546 65 189 1.7 4.3 0.00 0.00 0.00 42 1009.3
20170329021509 65 189 1.7 4.3 0.00 0.00 0.00 42 1009.3
20170329021242 65 173 1.7 1.7 0.00 0.00 0.00 42 1009.2
20170329021209 65 173 1.7 1.7 0.00 0.00 0.00 42 1009.2
20170329020605 66 294 2.6 3.5 0.00 0.00 0.00 42 1009.5
20170329020412 66 270 0.9 1.7 0.00 0.00 0.00 40 1009.4
20170329020304 66 270 0.9 1.7 0.00 0.00 0.00 40 1009.4
20170329015828 67 180 0.0 2.6 0.00 0.00 0.00 39 1009.3
20170329015702 67 180 0.0 2.6 0.00 0.00 0.00 39 1009.3
20170329014934 69 180 0.0 0.0 0.00 0.00 0.00 37 1009.2
20170329014759 69 180 0.0 0.0 0.00 0.00 0.00 37 1009.2
20170329014158 69 225 0.0 3.5 0.00 0.00 0.00 35 1009.2
20170329013646 70 261 3.5 3.5 0.00 0.00 0.00 35 1009.0
20170329013556 70 261 3.5 3.5 0.00 0.00 0.00 35 1009.0
20170329013337 70 247 2.6 2.6 0.00 0.00 0.00 34 1009.3
20170329013254 70 247 2.6 2.6 0.00 0.00 0.00 34 1009.3
20170329013030 71 256 3.5 7.0 0.00 0.00 0.00 33 1009.4
20170329012955 71 256 3.5 7.0 0.00 0.00 0.00 33 1009.4
20170329012753 71 263 6.1 7.8 0.00 0.00 0.00 33 1009.3
20170329012656 71 263 6.1 7.8 0.00 0.00 0.00 33 1009.3
20170329012527 72 270 4.3 7.8 0.00 0.00 0.00 33 1009.4
20170329012353 72 270 4.3 7.8 0.00 0.00 0.00 33 1009.4
20170329012138 72 270 4.3 7.8 0.00 0.00 0.00 33 1009.2
20170329012050 72 270 4.3 7.8 0.00 0.00 0.00 33 1009.2
20170329011904 73 267 7.0 8.7 0.00 0.00 0.00 32 1009.1
20170329011752 73 267 7.0 8.7 0.00 0.00 0.00 32 1009.1
20170329011448 73 276 7.0 8.7 0.00 0.00 0.00 32 1009.1
20170329011343 74 299 5.2 7.8 0.00 0.00 0.00 32 1009.0
20170329011145 74 299 5.2 7.8 0.00 0.00 0.00 32 1009.0
20170329010935 75 267 6.1 6.1 0.00 0.00 0.00 32 1008.9
20170329010847 75 267 6.1 6.1 0.00 0.00 0.00 32 1008.9
20170329010043 75 245 1.7 3.5 0.00 0.00 0.00 32 1009.0
20170329005942 75 245 1.7 3.5 0.00 0.00 0.00 32 1009.0
20170329005802 75 254 2.6 4.3 0.00 0.00 0.00 32 1009.2
20170329005641 75 254 2.6 4.3 0.00 0.00 0.00 32 1009.2
20170329005446 75 261 1.7 4.3 0.00 0.00 0.00 31 1009.3
20170329005340 75 261 1.7 4.3 0.00 0.00 0.00 31 1009.3
20170329005154 75 252 2.6 6.1 0.00 0.00 0.00 31 1009.1
20170329005039 75 252 2.6 6.1 0.00 0.00 0.00 31 1009.1
20170329004851 75 265 3.5 7.0 0.00 0.00 0.00 31 1009.0
20170329004738 75 265 3.5 7.0 0.00 0.00 0.00 31 1009.0
20170329004531 76 262 3.5 4.3 0.00 0.00 0.00 30 1008.9
20170329004437 76 262 3.5 4.3 0.00 0.00 0.00 30 1008.9
20170329004229 76 249 2.6 4.3 0.00 0.00 0.00 30 1009.0
20170329004137 76 249 2.6 4.3 0.00 0.00 0.00 30 1009.0
20170329003935 76 270 2.6 3.5 0.00 0.00 0.00 31 1009.0
20170329003836 76 270 2.6 3.5 0.00 0.00 0.00 31 1009.0
20170329003647 76 234 1.7 4.3 0.00 0.00 0.00 30 1009.0
20170329003533 76 234 1.7 4.3 0.00 0.00 0.00 30 1009.0
20170329003408 76 258 1.7 4.3 0.00 0.00 0.00 31 1009.0
20170329003232 76 258 1.7 4.3 0.00 0.00 0.00 31 1009.0
20170329003016 76 243 3.5 5.2 0.00 0.00 0.00 30 1009.0
20170329002931 76 243 3.5 5.2 0.00 0.00 0.00 30 1009.0
20170329002630 76 245 2.6 7.8 0.00 0.00 0.00 30 1009.1
20170329002442 76 243 3.5 7.8 0.00 0.00 0.00 30 1009.0
20170329002329 76 243 3.5 7.8 0.00 0.00 0.00 30 1009.0
20170329001911 76 252 4.3 7.0 0.00 0.00 0.00 30 1009.1
20170329001727 76 252 4.3 7.0 0.00 0.00 0.00 30 1009.1
20170329001536 77 265 4.3 7.0 0.00 0.00 0.00 30 1009.2
20170329001425 77 265 4.3 7.0 0.00 0.00 0.00 30 1009.2
20170329001124 77 258 3.5 5.2 0.00 0.00 0.00 30 1009.1
20170329000523 77 257 1.7 7.0 0.00 0.00 0.00 29 1008.9
20170329000315 77 237 2.6 5.2 0.00 0.00 0.00 29 1009.0
20170329000221 77 237 2.6 5.2 0.00 0.00 0.00 29 1009.0
20170329000021 77 245 3.5 6.1 0.00 0.00 0.00 28 1008.9
20170328235920 77 245 3.5 6.1 0.00 0.00 0.00 28 1008.9
20170328235721 78 222 0.9 6.1 0.00 0.00 0.00 28 1009.1
20170328235619 78 222 0.9 6.1 0.00 0.00 0.00 28 1009.1
20170328234820 78 256 5.2 7.0 0.00 0.00 0.00 27 1008.9
20170328234715 78 256 5.2 7.0 0.00 0.00 0.00 27 1008.9
20170328234527 78 244 2.6 7.0 0.00 0.00 0.00 27 1008.8
20170328234414 78 244 2.6 7.0 0.00 0.00 0.00 27 1008.8
20170328234322 79 256 5.2 7.0 0.00 0.00 0.00 26 1008.8
20170328234113 79 256 5.2 7.0 0.00 0.00 0.00 26 1008.8
20170328233949 79 263 6.1 14.8 0.00 0.00 0.00 25 1008.7
20170328233812 79 263 6.1 14.8 0.00 0.00 0.00 25 1008.7
20170328233644 79 315 8.7 8.7 0.00 0.00 0.00 21 1008.6
20170328233512 79 315 8.7 8.7 0.00 0.00 0.00 21 1008.6
20170328233402 79 290 0.9 6.1 0.00 0.00 0.00 22 1008.7
20170328233210 79 290 0.9 6.1 0.00 0.00 0.00 22 1008.7
20170328233034 79 85 4.3 5.2 0.00 0.00 0.00 22 1008.9
20170328232909 79 85 4.3 5.2 0.00 0.00 0.00 22 1008.9
20170328232712 79 65 5.2 7.0 0.00 0.00 0.00 21 1008.6
20170328232610 79 65 5.2 7.0 0.00 0.00 0.00 21 1008.6
20170328232407 79 49 2.6 8.7 0.00 0.00 0.00 21 1008.7
20170328232307 79 49 2.6 8.7 0.00 0.00 0.00 21 1008.7
20170328232128 79 76 6.1 8.7 0.00 0.00 0.00 21 1008.9
20170328232006 79 76 6.1 8.7 0.00 0.00 0.00 21 1008.9
20170328231827 79 67 5.2 8.7 0.00 0.00 0.00 21 1008.9
20170328231705 79 67 5.2 8.7 0.00 0.00 0.00 21 1008.9
20170328231458 79 357 8.7 8.7 0.00 0.00 0.00 21 1008.9
20170328231405 79 357 8.7 8.7 0.00 0.00 0.00 21 1008.9
20170328231153 79 90 5.2 10.4 0.00 0.00 0.00 21 1008.8
20170328231103 79 90 5.2 10.4 0.00 0.00 0.00 21 1008.8
20170328230559 78 78 7.8 10.4 0.00 0.00 0.00 21 1008.9
20170328230455 78 78 7.8 10.4 0.00 0.00 0.00 21 1008.9
20170328230409 78 63 3.5 7.8 0.00 0.00 0.00 22 1009.1
20170328230154 78 63 3.5 7.8 0.00 0.00 0.00 22 1009.1
20170328225948 78 45 1.7 13.9 0.00 0.00 0.00 22 1009.1
20170328225853 78 45 1.7 13.9 0.00 0.00 0.00 22 1009.1
20170328225713 78 67 11.3 13.9 0.00 0.00 0.00 20 1009.2
20170328225552 78 67 11.3 13.9 0.00 0.00 0.00 20 1009.2
20170328225424 78 28 1.7 8.7 0.00 0.00 0.00 22 1009.3
20170328225251 78 28 1.7 8.7 0.00 0.00 0.00 22 1009.3
20170328225111 78 276 0.9 5.2 0.00 0.00 0.00 23 1009.3
20170328224952 78 276 0.9 5.2 0.00 0.00 0.00 23 1009.3
20170328224539 77 45 1.7 9.6 0.00 0.00 0.00 22 1009.2
20170328224348 77 45 1.7 9.6 0.00 0.00 0.00 22 1009.2
20170328224243 77 47 5.2 9.6 0.00 0.00 0.00 21 1009.3
20170328224048 77 47 5.2 9.6 0.00 0.00 0.00 21 1009.3
20170328223911 77 67 6.1 13.0 0.00 0.00 0.00 22 1009.3
20170328223746 77 67 6.1 13.0 0.00 0.00 0.00 22 1009.3
20170328223318 78 78 8.7 13.9 0.00 0.00 0.00 21 1009.3
20170328223143 78 78 8.7 13.9 0.00 0.00 0.00 21 1009.3
20170328222935 78 87 6.1 8.7 0.00 0.00 0.00 21 1009.4
20170328222842 78 87 6.1 8.7 0.00 0.00 0.00 21 1009.4
20170328222723 78 92 5.2 12.2 0.00 0.00 0.00 21 1009.5
20170328222541 78 92 5.2 12.2 0.00 0.00 0.00 21 1009.5
20170328222355 78 58 5.2 12.2 0.00 0.00 0.00 21 1009.6
20170328222240 78 58 5.2 12.2 0.00 0.00 0.00 21 1009.6
20170328222127 78 348 3.5 8.7 0.00 0.00 0.00 22 1009.5
20170328221943 78 348 3.5 8.7 0.00 0.00 0.00 22 1009.5
20170328221517 78 4 7.0 8.7 0.00 0.00 0.00 22 1009.6
20170328221338 78 4 7.0 8.7 0.00 0.00 0.00 22 1009.6
20170328221203 78 45 3.5 8.7 0.00 0.00 0.00 23 1009.6
20170328221035 78 45 3.5 8.7 0.00 0.00 0.00 23 1009.6
20170328220935 78 103 7.0 10.4 0.00 0.00 0.00 21 1009.5
20170328220734 78 103 7.0 10.4 0.00 0.00 0.00 21 1009.5
20170328220433 78 38 3.5 10.4 0.00 0.00 0.00 22 1009.7
20170328220132 78 85 7.8 10.4 0.00 0.00 0.00 21 1009.7
20170328220003 78 40 7.0 9.6 0.00 0.00 0.00 23 1009.9
20170328215830 78 40 7.0 9.6 0.00 0.00 0.00 23 1009.9
20170328215705 78 2 6.1 11.3 0.00 0.00 0.00 22 1009.8
20170328215532 78 2 6.1 11.3 0.00 0.00 0.00 22 1009.8
20170328215416 78 96 8.7 16.5 0.00 0.00 0.00 22 1009.8
20170328215229 78 96 8.7 16.5 0.00 0.00 0.00 22 1009.8
20170328215048 78 74 10.4 16.5 0.00 0.00 0.00 21 1009.8
20170328214930 78 74 10.4 16.5 0.00 0.00 0.00 21 1009.8
20170328214832 78 81 2.6 7.8 0.00 0.00 0.00 24 1010.0
20170328214628 78 81 2.6 7.8 0.00 0.00 0.00 24 1010.0
20170328214144 78 45 6.1 7.8 0.00 0.00 0.00 24 1010.1
20170328214026 78 45 6.1 7.8 0.00 0.00 0.00 24 1010.1
20170328213852 77 74 3.5 10.4 0.00 0.00 0.00 24 1010.1
20170328213723 77 74 3.5 10.4 0.00 0.00 0.00 24 1010.1
20170328213621 77 40 7.8 10.4 0.00 0.00 0.00 23 1010.1
20170328213423 77 40 7.8 10.4 0.00 0.00 0.00 23 1010.1
20170328213337 77 2 4.3 15.6 0.00 0.00 0.00 24 1010.2
20170328213121 77 2 4.3 15.6 0.00 0.00 0.00 24 1010.2
20170328212938 77 81 12.2 12.2 0.00 0.00 0.00 22 1010.1
20170328212823 77 81 12.2 12.2 0.00 0.00 0.00 22 1010.1
20170328212623 77 74 10.4 10.4 0.00 0.00 0.00 23 1010.2
20170328212519 77 74 10.4 10.4 0.00 0.00 0.00 23 1010.2
20170328212427 77 0 4.3 7.0 0.00 0.00 0.00 24 1010.4
20170328212220 77 0 4.3 7.0 0.00 0.00 0.00 24 1010.4
20170328212106 77 78 4.3 11.3 0.00 0.00 0.00 24 1010.3
20170328211918 77 78 4.3 11.3 0.00 0.00 0.00 24 1010.3
20170328211711 76 40 7.0 11.3 0.00 0.00 0.00 23 1010.4
20170328211614 76 40 7.0 11.3 0.00 0.00 0.00 23 1010.4
20170328211315 76 74 7.8 15.6 0.00 0.00 0.00 23 1010.4
20170328211013 77 37 1.7 14.8 0.00 0.00 0.00 23 1010.4
20170328210812 77 47 6.1 14.8 0.00 0.00 0.00 23 1010.4
20170328210715 77 47 6.1 14.8 0.00 0.00 0.00 23 1010.4
20170328210411 77 99 6.1 9.6 0.00 0.00 0.00 24 1010.5
20170328205934 76 25 5.2 8.7 0.00 0.00 0.00 25 1010.4
20170328205809 76 25 5.2 8.7 0.00 0.00 0.00 25 1010.4
20170328205604 76 24 6.1 8.7 0.00 0.00 0.00 24 1010.4
20170328205507 76 24 6.1 8.7 0.00 0.00 0.00 24 1010.4
20170328205319 76 322 4.3 14.8 0.00 0.00 0.00 24 1010.6